Location: Vancouver
(49.2500°N, 123.1330°W)
Time: 09:31:08
(UTC-07:00)

Iridium 35 - Visible Passes

Search period start: 20 August 2014 00:00
Search period end: 30 August 2014 00:00
Orbit: 776 x 779 km, 86.4° (Epoch: 19 August)

Date Brightness Start Highest point End Pass type
(mag) Time Alt. Az. Time Alt. Az. Time Alt. Az.
20 Aug 7.2 04:23:44 10° SE 04:27:58 26° E 04:32:14 10° NNE visible
21 Aug 7.7 03:51:46 10° ESE 03:54:47 16° ENE 03:57:49 10° NE visible
21 Aug 5.0 05:29:36 10° S 05:34:49 80° W 05:40:03 10° N visible
22 Aug 5.6 04:56:12 10° SSE 05:01:19 60° E 05:06:27 10° N visible
23 Aug 6.6 04:23:15 10° SSE 04:27:56 35° E 04:32:39 10° NNE visible
24 Aug 7.4 03:50:49 10° SE 03:54:41 21° ENE 03:58:32 10° NNE visible
24 Aug 5.1 05:29:50 10° SSW 05:34:58 58° W 05:40:07 10° N visible
25 Aug 7.8 03:19:22 10° E 03:21:32 13° ENE 03:23:43 10° NE visible
25 Aug 5.1 04:56:11 10° S 05:01:23 83° E 05:06:38 10° N visible
26 Aug 5.9 04:22:57 10° SSE 04:27:56 49° E 04:32:57 10° NNE visible
27 Aug 6.8 03:50:11 10° SE 03:54:36 29° E 03:59:03 10° NNE visible
27 Aug 5.5 05:30:14 10° SSW 05:35:09 42° W 05:40:07 10° N visible
28 Aug 7.5 03:18:03 10° ESE 03:21:24 18° ENE 03:24:45 10° NE visible
28 Aug 5.0 04:56:19 10° S 05:01:30 72° W 05:06:44 10° N visible
29 Aug 5.3 04:23:01 11° S 04:27:59 68° E 04:33:10 10° N visible
